Year,Month,Day,Hour,Minute,Value (Times are PST for windspeed in km/hr)
2016,10,03,00,00,0.70
2016,10,03,00,01,0.10
2016,10,03,00,02,0.40
2016,10,03,00,03,0.10
2016,10,03,00,04,0.90
2016,10,03,00,05,2.00
2016,10,03,00,06,3.00
2016,10,03,00,07,3.40
2016,10,03,00,08,2.60
2016,10,03,00,09,3.70
2016,10,03,00,10,2.30
2016,10,03,00,11,2.20
2016,10,03,00,12,3.30
2016,10,03,00,13,2.40
2016,10,03,00,14,1.50
2016,10,03,00,15,3.10
2016,10,03,00,16,2.80
2016,10,03,00,17,2.00
2016,10,03,00,18,1.60
2016,10,03,00,19,1.10
2016,10,03,00,20,1.30
2016,10,03,00,21,0.50
2016,10,03,00,22,0.10
2016,10,03,00,23,0.00
2016,10,03,00,24,0.00
2016,10,03,00,25,0.00
2016,10,03,00,26,0.00
2016,10,03,00,27,0.00
2016,10,03,00,28,0.30
2016,10,03,00,29,0.10
2016,10,03,00,30,0.50
2016,10,03,00,31,0.30
2016,10,03,00,32,0.10
2016,10,03,00,33,0.10
2016,10,03,00,34,1.00
2016,10,03,00,35,2.60
2016,10,03,00,36,3.70
2016,10,03,00,37,4.20
2016,10,03,00,38,3.40
2016,10,03,00,39,2.00
2016,10,03,00,40,1.00
2016,10,03,00,41,0.00
2016,10,03,00,42,0.00
2016,10,03,00,43,0.00
2016,10,03,00,44,0.00
2016,10,03,00,45,0.00
2016,10,03,00,46,0.00
2016,10,03,00,47,0.00
2016,10,03,00,48,0.10
2016,10,03,00,49,0.40
2016,10,03,00,50,0.00
2016,10,03,00,51,0.00
2016,10,03,00,52,0.00
2016,10,03,00,53,0.00
2016,10,03,00,54,0.00
2016,10,03,00,55,0.10
2016,10,03,00,56,0.00
2016,10,03,00,57,0.00
2016,10,03,00,58,0.00
2016,10,03,00,59,0.00
2016,10,03,01,00,0.30
2016,10,03,01,01,0.60
2016,10,03,01,02,0.10
2016,10,03,01,03,0.00
2016,10,03,01,04,0.00
2016,10,03,01,05,0.80
2016,10,03,01,06,0.10
2016,10,03,01,07,0.10
2016,10,03,01,08,0.00
2016,10,03,01,09,0.00
2016,10,03,01,10,0.00
2016,10,03,01,11,0.70
2016,10,03,01,12,0.10
2016,10,03,01,13,2.00
2016,10,03,01,14,2.10
2016,10,03,01,15,1.60
2016,10,03,01,16,1.30
2016,10,03,01,17,2.30
2016,10,03,01,18,2.30
2016,10,03,01,19,4.30
2016,10,03,01,20,5.70
2016,10,03,01,21,7.20
2016,10,03,01,22,7.70
2016,10,03,01,23,5.80
2016,10,03,01,24,5.20
2016,10,03,01,25,4.30
2016,10,03,01,26,3.90
2016,10,03,01,27,3.20
2016,10,03,01,28,3.30
2016,10,03,01,29,3.90
2016,10,03,01,30,2.70
2016,10,03,01,31,3.00
2016,10,03,01,32,2.70
2016,10,03,01,33,1.50
2016,10,03,01,34,1.70
2016,10,03,01,35,2.40
2016,10,03,01,36,2.60
2016,10,03,01,37,2.90
2016,10,03,01,38,1.90
2016,10,03,01,39,1.80
2016,10,03,01,40,1.90
2016,10,03,01,41,0.50
2016,10,03,01,42,0.50
2016,10,03,01,43,0.00
2016,10,03,01,44,1.10
2016,10,03,01,45,3.00
2016,10,03,01,46,3.80
2016,10,03,01,47,4.50
2016,10,03,01,48,3.90
2016,10,03,01,49,4.00
2016,10,03,01,50,2.70
2016,10,03,01,51,3.50
2016,10,03,01,52,3.30
2016,10,03,01,53,0.80
2016,10,03,01,54,0.90
2016,10,03,01,55,1.00
2016,10,03,01,56,2.30
2016,10,03,01,57,3.30
2016,10,03,01,58,4.80
2016,10,03,01,59,4.90
2016,10,03,02,00,2.10
2016,10,03,02,01,1.60
2016,10,03,02,02,5.90
2016,10,03,02,03,5.60
2016,10,03,02,04,6.10
2016,10,03,02,05,5.80
2016,10,03,02,06,6.20
2016,10,03,02,07,5.70
2016,10,03,02,08,5.20
2016,10,03,02,09,7.10
2016,10,03,02,10,6.10
2016,10,03,02,11,4.60
2016,10,03,02,12,2.80
2016,10,03,02,13,0.10
2016,10,03,02,14,0.00
2016,10,03,02,15,0.00
2016,10,03,02,16,0.50
2016,10,03,02,17,0.10
2016,10,03,02,18,0.60
2016,10,03,02,19,0.00
2016,10,03,02,20,0.00
2016,10,03,02,21,0.00
2016,10,03,02,22,0.00
2016,10,03,02,23,0.00
2016,10,03,02,24,0.00
2016,10,03,02,25,0.00
2016,10,03,02,26,0.10
2016,10,03,02,27,0.00
2016,10,03,02,28,0.00
2016,10,03,02,29,0.00
2016,10,03,02,30,0.00
2016,10,03,02,31,0.60
2016,10,03,02,32,2.40
2016,10,03,02,33,2.00
2016,10,03,02,34,1.40
2016,10,03,02,35,4.20
2016,10,03,02,36,3.60
2016,10,03,02,37,4.10
2016,10,03,02,38,1.50
2016,10,03,02,39,0.40
2016,10,03,02,40,2.00
2016,10,03,02,41,0.00
2016,10,03,02,42,0.30
2016,10,03,02,43,0.00
2016,10,03,02,44,0.80
2016,10,03,02,45,2.70
2016,10,03,02,46,1.50
2016,10,03,02,47,2.10
2016,10,03,02,52,4.10
2016,10,03,02,53,2.30
2016,10,03,02,54,2.30
2016,10,03,02,55,3.00
2016,10,03,02,56,1.70
2016,10,03,02,57,2.90
2016,10,03,02,58,3.10
2016,10,03,02,59,3.50
2016,10,03,03,00,3.60
2016,10,03,03,01,1.90
2016,10,03,03,02,3.20
2016,10,03,03,03,1.10
2016,10,03,03,04,1.10
2016,10,03,03,05,2.30
2016,10,03,03,06,2.80
2016,10,03,03,07,1.20
2016,10,03,03,08,0.30
2016,10,03,03,09,0.30
2016,10,03,03,10,0.40
2016,10,03,03,11,0.10
2016,10,03,03,12,1.30
2016,10,03,03,13,0.80
2016,10,03,03,14,2.30
2016,10,03,03,15,3.30
2016,10,03,03,16,3.00
2016,10,03,03,17,2.70
2016,10,03,03,18,2.10
2016,10,03,03,19,2.80
2016,10,03,03,20,3.80
2016,10,03,03,21,3.60
2016,10,03,03,22,0.80
2016,10,03,03,23,1.30
2016,10,03,03,24,4.10
2016,10,03,03,25,2.10
2016,10,03,03,26,1.00
2016,10,03,03,27,0.10
2016,10,03,03,28,0.30
2016,10,03,03,29,3.90
2016,10,03,03,30,4.30
2016,10,03,03,31,2.60
2016,10,03,03,32,3.40
2016,10,03,03,33,5.00
2016,10,03,03,34,4.30
2016,10,03,03,35,2.70
2016,10,03,03,36,0.90
2016,10,03,03,37,3.80
2016,10,03,03,38,1.80
2016,10,03,03,39,1.70
2016,10,03,03,40,4.20
2016,10,03,03,41,6.00
2016,10,03,03,42,3.60
2016,10,03,03,43,3.60
2016,10,03,03,44,5.00
2016,10,03,03,45,2.90
2016,10,03,03,46,1.10
2016,10,03,03,47,0.40
2016,10,03,03,48,0.00
2016,10,03,03,49,0.50
2016,10,03,03,50,2.80
2016,10,03,03,51,0.80
2016,10,03,03,52,1.00
2016,10,03,03,53,3.00
2016,10,03,03,54,3.70
2016,10,03,03,55,3.70
2016,10,03,03,56,4.20
2016,10,03,03,57,6.00
2016,10,03,03,58,5.00
2016,10,03,03,59,3.30
2016,10,03,04,00,2.90
2016,10,03,04,01,0.60
2016,10,03,04,02,1.80
2016,10,03,04,03,0.70
2016,10,03,04,04,0.80
2016,10,03,04,05,3.10
2016,10,03,04,06,1.40
2016,10,03,04,07,1.00
2016,10,03,04,08,1.10
2016,10,03,04,09,0.40
2016,10,03,04,10,0.40
2016,10,03,04,11,1.20
2016,10,03,04,12,1.00
2016,10,03,04,13,0.10
2016,10,03,04,14,0.00
2016,10,03,04,15,1.40
2016,10,03,04,16,1.00
2016,10,03,04,17,3.20
2016,10,03,04,18,4.30
2016,10,03,04,19,4.50
2016,10,03,04,20,4.50
2016,10,03,04,21,3.80
2016,10,03,04,22,3.50
2016,10,03,04,23,3.20
2016,10,03,04,24,0.90
2016,10,03,04,25,0.00
2016,10,03,04,26,0.00
2016,10,03,04,27,0.00
2016,10,03,04,28,0.20
2016,10,03,04,29,0.80
2016,10,03,04,30,0.10
2016,10,03,04,31,1.00
2016,10,03,04,32,0.00
2016,10,03,04,33,0.00
2016,10,03,04,34,0.00
2016,10,03,04,35,0.00
2016,10,03,04,36,0.00
2016,10,03,04,37,0.00
2016,10,03,04,38,0.00
2016,10,03,04,39,0.00
2016,10,03,04,40,0.60
2016,10,03,04,41,0.00
2016,10,03,04,42,0.00
2016,10,03,04,43,0.00
2016,10,03,04,44,0.00
2016,10,03,04,45,2.20
2016,10,03,04,46,2.60
2016,10,03,04,47,3.20
2016,10,03,04,48,3.10
2016,10,03,04,49,2.60
2016,10,03,04,50,2.80
2016,10,03,04,51,2.30
2016,10,03,04,52,1.10
2016,10,03,04,53,2.10
2016,10,03,04,54,2.80
2016,10,03,04,55,2.40
2016,10,03,04,56,2.90
2016,10,03,04,57,0.50
2016,10,03,04,58,0.10
2016,10,03,04,59,3.80
2016,10,03,05,00,1.80
2016,10,03,05,01,0.30
2016,10,03,05,02,2.90
2016,10,03,05,03,3.70
2016,10,03,05,04,0.10
2016,10,03,05,05,0.30
2016,10,03,05,06,2.60
2016,10,03,05,07,3.40
2016,10,03,05,08,1.40
2016,10,03,05,09,3.70
2016,10,03,05,10,2.40
2016,10,03,05,11,1.70
2016,10,03,05,12,1.40
2016,10,03,05,13,2.00
2016,10,03,05,14,3.80
2016,10,03,05,15,4.00
2016,10,03,05,16,3.20
2016,10,03,05,17,4.30
2016,10,03,05,18,4.90
2016,10,03,05,19,2.50
2016,10,03,05,20,3.40
2016,10,03,05,21,3.10
2016,10,03,05,22,1.30
2016,10,03,05,23,2.40
2016,10,03,05,24,4.60
2016,10,03,05,25,4.80
2016,10,03,05,26,4.20
2016,10,03,05,27,1.90
2016,10,03,05,28,2.90
2016,10,03,05,29,1.70
2016,10,03,05,30,3.60
2016,10,03,05,31,3.60
2016,10,03,05,32,3.50
2016,10,03,05,33,4.60
2016,10,03,05,34,2.40
2016,10,03,05,35,1.90
2016,10,03,05,36,2.30
2016,10,03,05,37,2.70
2016,10,03,05,38,4.20
2016,10,03,05,39,3.00
2016,10,03,05,40,2.40
2016,10,03,05,41,4.90
2016,10,03,05,42,2.30
2016,10,03,05,43,3.80
2016,10,03,05,44,4.80
2016,10,03,05,45,3.30
2016,10,03,05,46,2.90
2016,10,03,05,47,2.90
2016,10,03,05,48,3.00
2016,10,03,05,49,4.00
2016,10,03,05,50,1.00
2016,10,03,05,51,1.40
2016,10,03,05,52,0.00
2016,10,03,05,53,0.00
2016,10,03,05,54,0.10
2016,10,03,05,55,0.00
2016,10,03,05,56,0.60
2016,10,03,05,57,0.50
2016,10,03,05,58,0.10
2016,10,03,05,59,0.00
2016,10,03,06,00,0.00
2016,10,03,06,01,0.00
2016,10,03,06,02,0.20
2016,10,03,06,03,0.50
2016,10,03,06,04,1.50
2016,10,03,06,05,0.60
2016,10,03,06,06,0.00
2016,10,03,06,07,0.00
2016,10,03,06,08,0.10
2016,10,03,06,09,3.70
2016,10,03,06,10,1.30
2016,10,03,06,11,0.10
2016,10,03,06,12,0.00
2016,10,03,06,13,0.00
2016,10,03,06,14,1.60
2016,10,03,06,15,2.40
2016,10,03,06,16,0.20
2016,10,03,06,17,0.10
2016,10,03,06,18,0.00
2016,10,03,06,19,0.00
2016,10,03,06,20,0.00
2016,10,03,06,21,0.00
2016,10,03,06,22,0.10
2016,10,03,06,23,0.30
2016,10,03,06,24,0.10
2016,10,03,06,25,2.30
2016,10,03,06,26,0.90
2016,10,03,06,27,0.00
2016,10,03,06,28,0.00
2016,10,03,06,29,0.00
2016,10,03,06,30,0.00
2016,10,03,06,31,0.00
2016,10,03,06,32,0.00
2016,10,03,06,33,0.00
2016,10,03,06,34,0.00
2016,10,03,06,35,0.10
2016,10,03,06,36,1.10
2016,10,03,06,37,2.10
2016,10,03,06,38,1.10
2016,10,03,06,39,0.80
2016,10,03,06,40,0.70
2016,10,03,06,41,0.00
2016,10,03,06,42,0.10
2016,10,03,06,43,0.00
2016,10,03,06,44,0.00
2016,10,03,06,45,0.00
2016,10,03,06,46,0.40
2016,10,03,06,47,0.20
2016,10,03,06,48,2.50
2016,10,03,06,49,0.00
2016,10,03,06,50,0.10
2016,10,03,06,51,0.10
2016,10,03,06,52,0.20
2016,10,03,06,53,0.70
2016,10,03,06,54,0.00
2016,10,03,06,55,0.00
2016,10,03,06,56,0.00
2016,10,03,06,57,0.00
2016,10,03,06,58,0.10
2016,10,03,06,59,0.30
2016,10,03,07,00,0.10
2016,10,03,07,01,0.20
2016,10,03,07,02,0.90
2016,10,03,07,03,1.10
2016,10,03,07,04,0.40
2016,10,03,07,05,0.10
2016,10,03,07,06,0.00
2016,10,03,07,07,0.00
2016,10,03,07,08,0.10
2016,10,03,07,09,1.10
2016,10,03,07,10,1.50
2016,10,03,07,11,3.20
2016,10,03,07,12,0.50
2016,10,03,07,13,0.10
2016,10,03,07,14,3.00
2016,10,03,07,15,2.80
2016,10,03,07,16,0.40
2016,10,03,07,17,1.00
2016,10,03,07,18,1.60
2016,10,03,07,19,1.90
2016,10,03,07,20,0.70
2016,10,03,07,21,1.40
2016,10,03,07,22,1.00
2016,10,03,07,23,1.10
2016,10,03,07,24,1.70
2016,10,03,07,25,1.00
2016,10,03,07,26,0.90
2016,10,03,07,27,0.00
2016,10,03,07,28,0.00
2016,10,03,07,29,0.00
2016,10,03,07,30,0.70
2016,10,03,07,31,1.00
2016,10,03,07,32,0.20
2016,10,03,07,33,0.00
2016,10,03,07,34,0.00
2016,10,03,07,35,0.00
2016,10,03,07,36,0.30
2016,10,03,07,37,0.70
2016,10,03,07,38,0.00
2016,10,03,07,39,0.10
2016,10,03,07,40,0.00
2016,10,03,07,41,0.00
2016,10,03,07,42,0.00
2016,10,03,07,43,1.40
2016,10,03,07,44,1.40
2016,10,03,07,45,0.60
2016,10,03,07,46,0.70
2016,10,03,07,47,3.10
2016,10,03,07,48,1.60
2016,10,03,07,49,1.30
2016,10,03,07,50,3.80
2016,10,03,07,51,3.00
2016,10,03,07,52,1.60
2016,10,03,07,53,0.90
2016,10,03,07,54,0.30
2016,10,03,07,55,0.20
2016,10,03,07,56,0.70
2016,10,03,07,57,2.20
2016,10,03,07,58,2.30
2016,10,03,07,59,0.20
2016,10,03,08,00,0.40
2016,10,03,08,01,0.20
2016,10,03,08,02,0.10
2016,10,03,08,03,0.00
2016,10,03,08,04,3.70
2016,10,03,08,05,3.70
2016,10,03,08,06,1.70
2016,10,03,08,07,3.00
2016,10,03,08,08,0.80
2016,10,03,08,09,0.50
2016,10,03,08,10,0.10
2016,10,03,08,11,0.00
2016,10,03,08,12,0.40
2016,10,03,08,13,0.20
2016,10,03,08,14,2.30
2016,10,03,08,15,2.60
2016,10,03,08,16,1.60
2016,10,03,08,17,1.00
2016,10,03,08,18,0.50
2016,10,03,08,19,0.30
2016,10,03,08,20,0.10
2016,10,03,08,21,0.00
2016,10,03,08,22,0.00
2016,10,03,08,23,0.00
2016,10,03,08,24,0.30
2016,10,03,08,25,0.40
2016,10,03,08,26,0.10
2016,10,03,08,27,0.10
2016,10,03,08,28,0.50
2016,10,03,08,29,0.00
2016,10,03,08,30,0.10
2016,10,03,08,31,0.10
2016,10,03,08,32,0.40
2016,10,03,08,33,0.30
2016,10,03,08,34,0.10
2016,10,03,08,35,0.00
2016,10,03,08,36,0.70
2016,10,03,08,37,0.60
2016,10,03,08,38,0.10
2016,10,03,08,39,0.00
2016,10,03,08,40,0.00
2016,10,03,08,41,0.20
2016,10,03,08,42,0.00
2016,10,03,08,43,0.00
2016,10,03,08,44,0.50
2016,10,03,08,45,0.00
2016,10,03,08,46,0.00
2016,10,03,08,47,0.00
2016,10,03,08,48,0.00
2016,10,03,08,49,0.00
2016,10,03,08,50,0.00
2016,10,03,08,51,0.10
2016,10,03,08,52,0.00
2016,10,03,08,53,0.70
2016,10,03,08,54,0.60
2016,10,03,08,55,0.00
2016,10,03,08,56,0.00
2016,10,03,08,57,0.00
2016,10,03,08,58,0.00
2016,10,03,08,59,0.00
2016,10,03,09,00,0.40
2016,10,03,09,01,0.20
2016,10,03,09,02,0.00
2016,10,03,09,03,0.00
2016,10,03,09,04,0.00
2016,10,03,09,05,0.10
2016,10,03,09,06,1.00
2016,10,03,09,07,0.10
2016,10,03,09,08,0.10
2016,10,03,09,09,0.70
2016,10,03,09,10,1.80
2016,10,03,09,11,0.80
2016,10,03,09,12,2.00
2016,10,03,09,13,0.40
2016,10,03,09,14,0.00
2016,10,03,09,15,4.20
2016,10,03,09,16,2.40
2016,10,03,09,17,1.10
2016,10,03,09,18,0.20
2016,10,03,09,19,0.10
2016,10,03,09,20,0.00
2016,10,03,09,21,0.00
2016,10,03,09,22,0.10
2016,10,03,09,23,0.90
2016,10,03,09,24,2.30
2016,10,03,09,25,1.70
2016,10,03,09,26,0.10
2016,10,03,09,27,0.20
2016,10,03,09,28,0.00
2016,10,03,09,29,0.00
2016,10,03,09,30,0.10
2016,10,03,09,31,0.00
2016,10,03,09,32,0.00
2016,10,03,09,33,0.00
2016,10,03,09,34,0.50
2016,10,03,09,35,1.40
2016,10,03,09,36,1.80
2016,10,03,09,37,1.60
2016,10,03,09,38,1.40
2016,10,03,09,39,0.80
2016,10,03,09,40,0.00
2016,10,03,09,41,0.10
2016,10,03,09,42,0.00
2016,10,03,09,43,0.00
2016,10,03,09,44,0.00
2016,10,03,09,45,0.00
2016,10,03,09,46,0.00
2016,10,03,09,47,0.00
2016,10,03,09,48,0.00
2016,10,03,09,49,0.00
2016,10,03,09,50,0.00
2016,10,03,09,51,0.00
2016,10,03,09,52,0.00
2016,10,03,09,53,0.00
2016,10,03,09,54,0.00
2016,10,03,09,55,0.00
2016,10,03,09,56,0.00
2016,10,03,09,57,0.00
2016,10,03,09,58,0.00
2016,10,03,09,59,0.00
2016,10,03,10,00,0.00
2016,10,03,10,01,0.40
2016,10,03,10,02,2.60
2016,10,03,10,03,0.40
2016,10,03,10,04,0.00
2016,10,03,10,05,0.20
2016,10,03,10,06,0.00
2016,10,03,10,07,0.00
2016,10,03,10,08,0.20
2016,10,03,10,09,0.50
2016,10,03,10,10,3.00
2016,10,03,10,11,3.50
2016,10,03,10,12,3.50
2016,10,03,10,13,1.90
2016,10,03,10,14,1.30
2016,10,03,10,15,5.50
2016,10,03,10,16,0.70
2016,10,03,10,17,0.50
2016,10,03,10,18,0.20
2016,10,03,10,19,0.60
2016,10,03,10,20,1.70
2016,10,03,10,21,1.80
2016,10,03,10,22,1.20
2016,10,03,10,23,4.20
2016,10,03,10,24,1.50
2016,10,03,10,25,1.10
2016,10,03,10,26,4.90
2016,10,03,10,27,3.40
2016,10,03,10,28,3.80
2016,10,03,10,29,2.50
2016,10,03,10,30,7.10
2016,10,03,10,31,2.30
2016,10,03,10,32,4.30
2016,10,03,10,33,6.60
2016,10,03,10,34,4.50
2016,10,03,10,35,5.60
2016,10,03,10,36,4.10
2016,10,03,10,37,5.50
2016,10,03,10,38,2.30
2016,10,03,10,39,3.90
2016,10,03,10,40,5.20
2016,10,03,10,41,6.30
2016,10,03,10,42,5.80
2016,10,03,10,43,3.10
2016,10,03,10,44,7.20
2016,10,03,10,45,3.30
2016,10,03,10,46,3.30
2016,10,03,10,47,1.30
2016,10,03,10,48,5.90
2016,10,03,10,49,6.60
2016,10,03,10,50,9.10
2016,10,03,10,51,8.60
2016,10,03,10,52,6.00
2016,10,03,10,53,5.40
2016,10,03,10,54,4.80
2016,10,03,10,55,6.30
2016,10,03,10,56,9.70
2016,10,03,10,57,6.70
2016,10,03,10,58,3.90
2016,10,03,10,59,2.20
2016,10,03,11,00,7.20
2016,10,03,11,01,4.70
2016,10,03,11,02,8.30
2016,10,03,11,03,7.90
2016,10,03,11,04,8.60
2016,10,03,11,05,5.20
2016,10,03,11,06,5.00
2016,10,03,11,07,5.50
2016,10,03,11,08,4.20
2016,10,03,11,09,2.40
2016,10,03,11,10,7.20
2016,10,03,11,11,6.00
2016,10,03,11,12,6.50
2016,10,03,11,13,4.40
2016,10,03,11,14,8.00
2016,10,03,11,15,7.70
2016,10,03,11,16,9.60
2016,10,03,11,17,6.70
2016,10,03,11,18,5.50
2016,10,03,11,19,6.00
2016,10,03,11,20,9.20
2016,10,03,11,21,1.70
2016,10,03,11,22,1.00
2016,10,03,11,23,5.50
2016,10,03,11,24,4.80
2016,10,03,11,25,4.20
2016,10,03,11,26,3.90
2016,10,03,11,27,2.80
2016,10,03,11,28,4.90
2016,10,03,11,29,7.00
2016,10,03,11,30,5.10
2016,10,03,11,31,2.20
2016,10,03,11,32,1.10
2016,10,03,11,33,5.70
2016,10,03,11,34,5.20
2016,10,03,11,35,9.40
2016,10,03,11,36,3.40
2016,10,03,11,37,5.90
2016,10,03,11,38,3.10
2016,10,03,11,39,2.90
2016,10,03,11,40,2.00
2016,10,03,11,41,2.30
2016,10,03,11,42,4.90
2016,10,03,11,43,2.40
2016,10,03,11,44,4.50
2016,10,03,11,45,2.10
2016,10,03,11,46,4.50
2016,10,03,11,47,3.00
2016,10,03,11,48,2.80
2016,10,03,11,49,3.60
2016,10,03,11,50,6.40
2016,10,03,11,51,7.70
2016,10,03,11,52,4.60
2016,10,03,11,53,7.70
2016,10,03,11,54,3.00
2016,10,03,11,55,1.10
2016,10,03,11,56,1.10
2016,10,03,11,57,0.20
2016,10,03,11,58,3.80
2016,10,03,11,59,7.20
2016,10,03,12,00,5.70
2016,10,03,12,01,3.30
2016,10,03,12,02,3.80
2016,10,03,12,03,3.10
2016,10,03,12,04,3.50
2016,10,03,12,05,6.10
2016,10,03,12,06,3.00
2016,10,03,12,07,3.30
2016,10,03,12,08,0.70
2016,10,03,12,09,1.00
2016,10,03,12,10,3.40
2016,10,03,12,11,3.50
2016,10,03,12,12,4.00
2016,10,03,12,13,3.00
2016,10,03,12,14,3.20
2016,10,03,12,15,4.00
2016,10,03,12,16,3.90
2016,10,03,12,17,1.50
2016,10,03,12,18,0.80
2016,10,03,12,19,2.80
2016,10,03,12,20,1.60
2016,10,03,12,21,3.50
2016,10,03,12,22,5.10
2016,10,03,12,23,2.30
2016,10,03,12,24,3.60
2016,10,03,12,25,2.70
2016,10,03,12,26,2.50
2016,10,03,12,27,4.70
2016,10,03,12,28,2.80
2016,10,03,12,29,1.70
2016,10,03,12,30,0.30
2016,10,03,12,31,3.10
2016,10,03,12,32,4.00
2016,10,03,12,33,1.20
2016,10,03,12,34,2.40
2016,10,03,12,35,4.20
2016,10,03,12,36,2.50
2016,10,03,12,37,4.20
2016,10,03,12,38,5.10
2016,10,03,12,39,5.90
2016,10,03,12,40,5.70
2016,10,03,12,41,3.60
2016,10,03,12,42,4.70
2016,10,03,12,43,9.50
2016,10,03,12,44,3.50
2016,10,03,12,45,1.00
2016,10,03,12,46,4.00
2016,10,03,12,47,3.20
2016,10,03,12,48,3.10
2016,10,03,12,49,4.90
2016,10,03,12,50,4.80
2016,10,03,12,51,4.10
2016,10,03,12,52,2.70
2016,10,03,12,53,3.20
2016,10,03,12,54,1.00
2016,10,03,12,55,2.30
2016,10,03,12,56,4.80
2016,10,03,12,57,3.10
2016,10,03,12,58,2.70
2016,10,03,12,59,2.70
2016,10,03,13,00,2.20
2016,10,03,13,01,0.50
2016,10,03,13,02,0.00
2016,10,03,13,03,0.00
2016,10,03,13,04,0.00
2016,10,03,13,05,0.10
2016,10,03,13,06,0.10
2016,10,03,13,07,0.00
2016,10,03,13,08,1.20
2016,10,03,13,09,1.70
2016,10,03,13,10,2.10
2016,10,03,13,11,1.80
2016,10,03,13,12,3.00
2016,10,03,13,13,3.90
2016,10,03,13,14,3.20
2016,10,03,13,15,6.10
2016,10,03,13,16,3.80
2016,10,03,13,17,4.10
2016,10,03,13,18,5.40
2016,10,03,13,19,4.80
2016,10,03,13,20,6.30
2016,10,03,13,21,2.40
2016,10,03,13,22,0.90
2016,10,03,13,23,1.90
2016,10,03,13,24,1.40
2016,10,03,13,25,1.80
2016,10,03,13,26,2.40
2016,10,03,13,27,2.70
2016,10,03,13,28,3.60
2016,10,03,13,29,2.00
2016,10,03,13,30,0.40
2016,10,03,13,31,0.80
2016,10,03,13,32,1.40
2016,10,03,13,33,2.10
2016,10,03,13,34,4.20
2016,10,03,13,35,1.70
2016,10,03,13,36,3.90
2016,10,03,13,37,5.60
2016,10,03,13,38,4.50
2016,10,03,13,39,7.30
2016,10,03,13,40,3.60
2016,10,03,13,41,2.70
2016,10,03,13,42,3.00
2016,10,03,13,43,1.40
2016,10,03,13,44,3.60
2016,10,03,13,45,2.40
2016,10,03,13,46,6.60
2016,10,03,13,47,1.70
2016,10,03,13,48,3.50
2016,10,03,13,49,3.30
2016,10,03,13,50,7.70
2016,10,03,13,51,5.00
2016,10,03,13,52,1.00
2016,10,03,13,53,1.00
2016,10,03,13,54,4.30
2016,10,03,13,55,1.80
2016,10,03,13,56,2.20
2016,10,03,13,57,0.60
2016,10,03,13,58,0.00
2016,10,03,13,59,0.80
2016,10,03,14,00,1.50
2016,10,03,14,01,2.20
2016,10,03,14,02,0.10
2016,10,03,14,03,0.00
2016,10,03,14,04,0.90
2016,10,03,14,05,2.30
2016,10,03,14,06,1.30
2016,10,03,14,07,5.10
2016,10,03,14,08,3.50
2016,10,03,14,09,3.20
2016,10,03,14,10,3.80
2016,10,03,14,11,4.00
2016,10,03,14,12,1.40
2016,10,03,14,13,2.60
2016,10,03,14,14,6.30
2016,10,03,14,15,4.30
2016,10,03,14,16,4.20
2016,10,03,14,17,1.40
2016,10,03,14,18,2.90
2016,10,03,14,19,1.50
2016,10,03,14,20,2.10
2016,10,03,14,21,1.00
2016,10,03,14,22,1.20
2016,10,03,14,23,3.80
2016,10,03,14,24,2.90
2016,10,03,14,25,1.90
2016,10,03,14,26,1.10
2016,10,03,14,27,3.10
2016,10,03,14,28,5.40
2016,10,03,14,29,4.10
2016,10,03,14,30,4.80
2016,10,03,14,31,2.30
2016,10,03,14,32,3.60
2016,10,03,14,33,4.90
2016,10,03,14,34,5.00
2016,10,03,14,35,4.00
2016,10,03,14,36,2.60
2016,10,03,14,37,2.90
2016,10,03,14,38,2.60
2016,10,03,14,39,2.70
2016,10,03,14,40,3.60
2016,10,03,14,41,3.50
2016,10,03,14,42,3.40
2016,10,03,14,43,4.80
2016,10,03,14,44,4.50
2016,10,03,14,45,2.50
2016,10,03,14,46,2.30
2016,10,03,14,47,1.10
2016,10,03,14,48,4.20
2016,10,03,14,49,3.00
2016,10,03,14,50,0.40
2016,10,03,14,51,2.70
2016,10,03,14,52,2.10
2016,10,03,14,53,6.30
2016,10,03,14,54,5.00
2016,10,03,14,55,3.70
2016,10,03,14,56,4.90
2016,10,03,14,57,3.00
2016,10,03,14,58,5.90
2016,10,03,14,59,8.90
2016,10,03,15,00,7.70
2016,10,03,15,01,2.90
2016,10,03,15,02,7.10
2016,10,03,15,03,6.00
2016,10,03,15,04,7.20
2016,10,03,15,05,5.70
2016,10,03,15,06,6.70
2016,10,03,15,07,4.50
2016,10,03,15,08,3.80
2016,10,03,15,09,6.00
2016,10,03,15,10,4.90
2016,10,03,15,11,5.20
2016,10,03,15,12,6.00
2016,10,03,15,13,2.90
2016,10,03,15,14,2.60
2016,10,03,15,15,5.50
2016,10,03,15,16,6.90
2016,10,03,15,17,6.20
2016,10,03,15,18,5.60
2016,10,03,15,19,5.20
2016,10,03,15,20,4.60
2016,10,03,15,21,6.80
2016,10,03,15,22,3.30
2016,10,03,15,23,2.90
2016,10,03,15,24,4.30
2016,10,03,15,25,5.90
2016,10,03,15,26,7.00
2016,10,03,15,27,5.70
2016,10,03,15,28,5.00
2016,10,03,15,29,4.70
2016,10,03,15,30,6.10
2016,10,03,15,31,3.30
2016,10,03,15,32,2.30
2016,10,03,15,33,3.70
2016,10,03,15,34,3.20
2016,10,03,15,35,3.60
2016,10,03,15,36,3.30
2016,10,03,15,37,5.70
2016,10,03,15,38,8.00
2016,10,03,15,39,4.00
2016,10,03,15,40,7.90
2016,10,03,15,41,4.20
2016,10,03,15,42,3.80
2016,10,03,15,43,3.00
2016,10,03,15,44,1.90
2016,10,03,15,45,1.60
2016,10,03,15,46,1.20
2016,10,03,15,47,1.50
2016,10,03,15,48,0.20
2016,10,03,15,49,0.80
2016,10,03,15,50,1.30
2016,10,03,15,51,0.70
2016,10,03,15,52,1.90
2016,10,03,15,53,1.40
2016,10,03,15,54,2.90
2016,10,03,15,55,1.10
2016,10,03,15,56,0.80
2016,10,03,15,57,3.20
2016,10,03,15,58,1.50
2016,10,03,15,59,1.30
2016,10,03,16,00,1.90
2016,10,03,16,01,3.00
2016,10,03,16,02,3.50
2016,10,03,16,03,1.40
2016,10,03,16,04,2.30
2016,10,03,16,05,2.20
2016,10,03,16,06,1.10
2016,10,03,16,07,5.20
2016,10,03,16,08,4.80
2016,10,03,16,09,4.20
2016,10,03,16,10,3.50
2016,10,03,16,11,2.90
2016,10,03,16,12,3.30
2016,10,03,16,13,1.30
2016,10,03,16,14,2.40
2016,10,03,16,15,0.80
2016,10,03,16,16,0.40
2016,10,03,16,17,0.20
2016,10,03,16,18,2.40
2016,10,03,16,19,3.90
2016,10,03,16,20,6.00
2016,10,03,16,21,5.40
2016,10,03,16,22,4.30
2016,10,03,16,23,5.50
2016,10,03,16,24,6.50
2016,10,03,16,25,5.00
2016,10,03,16,26,5.50
2016,10,03,16,27,8.50
2016,10,03,16,28,5.40
2016,10,03,16,29,4.60
2016,10,03,16,30,6.00
2016,10,03,16,31,5.30
2016,10,03,16,32,5.80
2016,10,03,16,33,2.80
2016,10,03,16,34,3.50
2016,10,03,16,35,6.70
2016,10,03,16,36,7.00
2016,10,03,16,37,7.30
2016,10,03,16,38,6.30
2016,10,03,16,39,7.50
2016,10,03,16,40,6.40
2016,10,03,16,41,6.80
2016,10,03,16,42,6.30
2016,10,03,16,43,4.90
2016,10,03,16,44,1.40
2016,10,03,16,45,3.00
2016,10,03,16,46,5.00
2016,10,03,16,47,5.10
2016,10,03,16,48,3.30
2016,10,03,16,49,5.90
2016,10,03,16,50,6.40
2016,10,03,16,51,7.70
2016,10,03,16,52,5.60
2016,10,03,16,53,5.20
2016,10,03,16,54,6.80
2016,10,03,16,55,6.60
2016,10,03,16,56,7.00
2016,10,03,16,57,6.60
2016,10,03,16,58,6.20
2016,10,03,16,59,5.20
2016,10,03,17,00,5.10
2016,10,03,17,01,4.50
2016,10,03,17,02,4.20
2016,10,03,17,03,3.50
2016,10,03,17,04,3.30
2016,10,03,17,05,5.00
2016,10,03,17,06,5.30
2016,10,03,17,07,6.10
2016,10,03,17,08,7.00
2016,10,03,17,09,6.10
2016,10,03,17,10,6.30
2016,10,03,17,11,3.50
2016,10,03,17,12,4.20
2016,10,03,17,13,3.70
2016,10,03,17,14,4.40
2016,10,03,17,15,2.90
2016,10,03,17,16,3.50
2016,10,03,17,17,4.00
2016,10,03,17,18,3.10
2016,10,03,17,19,3.70
2016,10,03,17,20,5.70
2016,10,03,17,21,5.60
2016,10,03,17,22,4.70
2016,10,03,17,23,4.00
2016,10,03,17,24,4.80
2016,10,03,17,25,2.60
2016,10,03,17,26,2.90
2016,10,03,17,27,3.50
2016,10,03,17,28,0.80
2016,10,03,17,29,2.30
2016,10,03,17,30,1.30
2016,10,03,17,31,2.70
2016,10,03,17,32,2.60
2016,10,03,17,33,2.30
2016,10,03,17,34,1.50
2016,10,03,17,35,0.90
2016,10,03,17,36,2.10
2016,10,03,17,37,1.90
2016,10,03,17,38,2.00
2016,10,03,17,39,1.80
2016,10,03,17,40,1.30
2016,10,03,17,41,0.90
2016,10,03,17,42,2.70
2016,10,03,17,43,2.90
2016,10,03,17,44,2.70
2016,10,03,17,45,2.90
2016,10,03,17,46,4.20
2016,10,03,17,47,3.50
2016,10,03,17,48,1.60
2016,10,03,17,49,1.10
2016,10,03,17,50,0.10
2016,10,03,17,51,0.20
2016,10,03,17,52,1.70
2016,10,03,17,53,2.30
2016,10,03,17,54,2.50
2016,10,03,17,55,0.50
2016,10,03,17,56,0.10
2016,10,03,17,57,0.10
2016,10,03,17,58,0.20
2016,10,03,17,59,2.40
2016,10,03,18,00,1.40
2016,10,03,18,01,1.30
2016,10,03,18,02,0.50
2016,10,03,18,03,0.00
2016,10,03,18,04,0.30
2016,10,03,18,05,0.20
2016,10,03,18,06,0.20
2016,10,03,18,07,1.00
2016,10,03,18,08,1.90
2016,10,03,18,09,0.20
2016,10,03,18,10,0.40